TheGetRank SiteMap Page 2929
Home 2879 2880 2881 2882 2883 2884 2885 2886 2887 2888 2889 2890 2891 2892 2893 2894 2895 2896 2897 2898 2899 2900 2901 2902 2903 2904 2905 2906 2907 2908 2909 2910 2911 2912 2913 2914 2915 2916 2917 2918 2919 2920 2921 2922 2923 2924 2925 2926 2927 2928 2929 2930 2931 2932 2933 2934 2935 2936 2937 2938 2939 2940 2941 2942 2943 2944 2945 2946 2947 2948 2949 2950 2951 2952 2953 2954 2955 2956 2957 2958 2959 2960 2961 2962 2963 2964 2965 2966 2967 2968 2969 2970 2971 2972 2973 2974 2975 2976 2977 2978 2979
S.NO. Website Pagerank Alexa Rank Last Updated
2928000 1365car.enews.phaisarn15989.paid-surveys-review.org 0 1027478 2011-09-30 14:01:49
2928001 jensmusings.com 0 No Rank 2011-09-30 14:01:49
2928002 jenuinedesignstudio.com 0 No Rank 2011-09-30 14:01:53
2928003 inrs.ca 7 1064666 2011-09-30 14:01:54
2928004 jerkovic.com 0 No Rank 2011-09-30 14:01:57
2928005 nyyxb.com 1 No Rank 2011-09-30 14:01:58
2928006 easi.ro 1 26234930 2011-09-30 14:01:59
2928007 vado.fr 2 10485224 2011-09-30 14:01:59
2928008 jerryfei.com 0 No Rank 2011-09-30 14:02:01
2928009 jerryrickert.com 0 No Rank 2011-09-30 14:02:03
2928010 jerryskate.com 4 9012872 2011-09-30 14:02:08
2928011 mrze.hu 6 11967036 2011-09-30 14:02:08
2928012 jerseyfinestlimo.com 2 22569735 2011-09-30 14:02:09
2928013 k2ck.us 1 23669486 2011-09-30 14:02:09
2928014 jessica-watson.com 0 No Rank 2011-09-30 14:02:14
2928015 bicoastalcurious.com 2 2220638 2011-09-30 14:02:20
2928016 jessiespartyanimals.com 2 19444886 2011-09-30 14:02:20
2928017 jessietisdale.com 1 No Rank 2011-09-30 14:02:24
2928018 wrag.de 0 15303234 2011-09-30 14:02:27
2928019 jessicadeanephotography.com 1 13397455 2011-09-30 14:02:33
2928020 pretty-pussies.org 0 No Rank 2011-09-30 14:02:35
2928021 jewishanddating.com 3 No Rank 2011-09-30 14:02:36
2928022 koni.ru 4 No Rank 2011-09-30 14:02:38
2928023 gsm8.cn 2 1281488 2011-09-30 14:02:39
2928024 jfboats.com 0 No Rank 2011-09-30 14:02:41
2928025 blik.by 3 No Rank 2011-09-30 14:02:45
2928026 36x.net 1 20921177 2011-09-30 14:02:45
2928027 jfoxarchitect.com 0 No Rank 2011-09-30 14:02:46
2928028 paper-clipz.com 0 No Rank 2011-09-30 14:02:48
2928029 jharr.com 0 No Rank 2011-09-30 14:02:50
2928030 ruw.com 0 No Rank 2011-09-30 14:02:54
2928031 ji-ki.com 2 No Rank 2011-09-30 14:02:56
2928032 music.southasiamaps.com 0 No Rank 2011-09-30 14:02:57
2928033 obok.ca 3 No Rank 2011-09-30 14:03:00
2928034 jiazhuotrailer.com 1 No Rank 2011-09-30 14:03:03
2928035 wezo.am 0 No Rank 2011-09-30 14:03:03
2928036 jewelry-mage.com 0 No Rank 2011-09-30 14:03:03
2928037 52zx.cc 4 1912246 2011-09-30 14:03:05
2928038 jimcartermarine.com 2 6796301 2011-09-30 14:03:10
2928039 jimsdiamondmine.com 0 No Rank 2011-09-30 14:03:14
2928040 jimlewismagic.com 0 No Rank 2011-09-30 14:03:14
2928041 emmu.ru 2 10672438 2011-09-30 14:03:15
2928042 jips-jpn.jp 2 No Rank 2011-09-30 14:03:22
2928043 7680.dk 0 No Rank 2011-09-30 14:03:23
2928044 jjphotodesign.com 0 No Rank 2011-09-30 14:03:26
2928045 jiskra-strmilov.wz.cz 1 12537 2011-09-30 14:03:26
2928046 h7t.com 0 21611853 2011-09-30 14:03:27
2928047 jjsolicitors.com 1 No Rank 2011-09-30 14:03:32
2928048 cnpc.ca 0 21620935 2011-09-30 14:03:34
2928049 jamp.us 0 7987227 2011-09-30 14:03:37
2928050 jldoor.com 0 No Rank 2011-09-30 14:03:41
2928051 jmardrilling.com 0 No Rank 2011-09-30 14:03:42
2928052 nor.com 4 1054346 2011-09-30 14:03:46
2928053 moto.hu 3 8036378 2011-09-30 14:03:47
2928054 jmsminihorses.com 1 No Rank 2011-09-30 14:03:48
2928055 seve.powweb.com 0 5972 2011-09-30 14:03:48
2928056 jmxhky.cn 2 No Rank 2011-09-30 14:03:49
2928057 hkis.hr 5 19879312 2011-09-30 14:03:51
2928058 jnordwolfe.com 0 10657086 2011-09-30 14:03:52
2928059 jo-braun.com 3 8573384 2011-09-30 14:03:55
2928060 joanhartwig.com 2 7385065 2011-09-30 14:03:59
2928061 waresworth.com 0 20617917 2011-09-30 14:04:03
2928062 tzrs.de 0 No Rank 2011-09-30 14:04:03
2928063 joanneatkisson.com 2 No Rank 2011-09-30 14:04:03
2928064 joaquimsilvaesousa.com 0 No Rank 2011-09-30 14:04:04
2928065 singing-software.info 2 9310716 2011-09-30 14:04:06
2928066 joaquinfsousapoza.com 0 12102458 2011-09-30 14:04:08
2928067 mopsmania.foren-city.de 1 50052 2011-09-30 14:04:09
2928068 asaf.it 3 3381170 2011-09-30 14:04:10
2928069 professionalcashadvance.com 3 6536964 2011-09-30 14:04:11
2928070 fmag.lt 3 2193584 2011-09-30 14:04:11
2928071 jodydavies.com 0 No Rank 2011-09-30 14:04:14
2928072 jodem.net 0 No Rank 2011-09-30 14:04:16
2928073 chbien.com 1 No Rank 2011-09-30 14:04:16
2928074 xmg.biz 3 13848639 2011-09-30 14:04:17
2928075 jodypolevoy.com 0 No Rank 2011-09-30 14:04:18
2928076 joedonato.com 2 24055613 2011-09-30 14:04:23
2928077 joekennyhomes.com 0 No Rank 2011-09-30 14:04:24
2928078 joel-issadjy-les-treteaux-de-la-chanson.myzik.eu 1 2498528 2011-09-30 14:04:29
2928079 usabigbux.com 1 293854 2011-09-30 14:04:32
2928080 gtoc.jp 3 No Rank 2011-09-30 14:04:36
2928081 jogobingo.org 0 No Rank 2011-09-30 14:04:40
2928082 bbiw.pl 0 22496679 2011-09-30 14:04:42
2928083 johnathanmcclure.com 0 No Rank 2011-09-30 14:04:43
2928084 johan.youngnails.co.za 0 No Rank 2011-09-30 14:04:44
2928085 xzld.cn 5 10360218 2011-09-30 14:04:45
2928086 johnballou.com 0 No Rank 2011-09-30 14:04:47
2928087 tysonfritz.com 2 No Rank 2011-09-30 14:04:50
2928088 johncraigconstruction.com 0 No Rank 2011-09-30 14:04:52
2928089 johnclarkagency.com 0 15467726 2011-09-30 14:04:53
2928090 hetv.cz 1 8050279 2011-09-30 14:04:54
2928091 crvv.es 0 No Rank 2011-09-30 14:04:56
2928092 johnhidalgo.com 0 No Rank 2011-09-30 14:04:57
2928093 barz.tv 5 No Rank 2011-09-30 14:05:10
2928094 johnmarazzinissan.com 2 7430293 2011-09-30 14:05:11
2928095 johnlazenby.com 2 No Rank 2011-09-30 14:05:12
2928096 johnnyk-entertainment.com 0 No Rank 2011-09-30 14:05:15
2928097 johnshull.com 0 No Rank 2011-09-30 14:05:16
2928098 johnsoncustomboats.com 0 16689622 2011-09-30 14:05:21
2928099 letsparty-cyprus.com 3 2050097 2011-09-30 14:05:21
2928100 johnsonhomeimprovements.org 0 No Rank 2011-09-30 14:05:21
2928101 nwmc.ca 3 No Rank 2011-09-30 14:05:24
2928102 g36.net 0 10795469 2011-09-30 14:05:27
2928103 johntankardarchitect.net 2 No Rank 2011-09-30 14:05:28
2928104 johnvanness.net 2 No Rank 2011-09-30 14:05:29
2928105 comedear.com 0 13517403 2011-09-30 14:05:31
2928106 johnweaverhomes.com 1 No Rank 2011-09-30 14:05:31
2928107 1om.org 0 22546381 2011-09-30 14:05:32
2928108 rainbowvoicesoftoronto.com 3 No Rank 2011-09-30 14:05:32
2928109 nixe.me 0 No Rank 2011-09-30 14:05:36
2928110 jonnyburke.com 2 No Rank 2011-09-30 14:05:41
2928111 jorgequien.com 3 No Rank 2011-09-30 14:05:44
2928112 josefsauter.com 0 No Rank 2011-09-30 14:05:45
2928113 thebokeys.com 3 9167211 2011-09-30 14:05:48
2928114 ouay.cn 1 No Rank 2011-09-30 14:05:49
2928115 josephjoyce.com 0 No Rank 2011-09-30 14:05:50
2928116 josephandkayla.com 1 28466848 2011-09-30 14:05:52
2928117 mood.dk 0 No Rank 2011-09-30 14:05:54
2928118 josephlia.com 1 No Rank 2011-09-30 14:05:55
2928119 josephrestaurant.com 0 9694066 2011-09-30 14:05:56
2928120 tinasmall.info 1 26777510 2011-09-30 14:05:57
2928121 windowgraphics.buyqm.com 0 1552691 2011-09-30 14:05:57
2928122 saht.de 0 No Rank 2011-09-30 14:05:59
2928123 0464.cn 3 1632474 2011-09-30 14:06:00
2928124 josephstagnaro.com 0 No Rank 2011-09-30 14:06:02
2928125 detr.it 1 No Rank 2011-09-30 14:06:02
2928126 josephstrohan.com 0 No Rank 2011-09-30 14:06:04
2928127 cini.rs 3 6054662 2011-09-30 14:06:07
2928128 515th.com 2 1183105 2011-09-30 14:06:09
2928129 pap.net 2 No Rank 2011-09-30 14:06:11
2928130 joshtoth.com 2 1195611 2011-09-30 14:06:11
2928131 joshsmithguitar.com 3 3083121 2011-09-30 14:06:12
2928132 journospace.com 0 No Rank 2011-09-30 14:06:14
2928133 baka.dk 1 No Rank 2011-09-30 14:06:17
2928134 jpgodlew.com 0 No Rank 2011-09-30 14:06:21
2928135 pyv.com 0 28221356 2011-09-30 14:06:26
2928136 jrwprocess.com 1 No Rank 2011-09-30 14:06:26
2928137 jpmoreland.com 3 4967467 2011-09-30 14:06:29
2928138 forums.informe.com 4 4564 2011-09-30 14:06:30
2928139 js-schinznach.ch 1 No Rank 2011-09-30 14:06:33
2928140 anbi.nl 6 1465320 2011-09-30 14:06:34
2928141 jsg-hohenahr.de.vu 0 No Rank 2011-09-30 14:06:35
2928142 ro.forums.wordpress.org 5 77 2011-09-30 14:06:38
2928143 jsload.net 2 3703784 2011-09-30 14:06:38
2928144 judge-ellie.com 0 No Rank 2011-09-30 14:06:43
2928145 jszcc.com 0 No Rank 2011-09-30 14:06:44
2928146 ginghamfisheries.co.uk 1 14537173 2011-09-30 14:06:45
2928147 judyzerafa.com 3 No Rank 2011-09-30 14:06:46
2928148 versatilityranch.org 3 No Rank 2011-09-30 14:06:46
2928149 jukestrips.com 2 24056225 2011-09-30 14:06:48
2928150 xuannhu.thuhoavn.com 1 3048931 2011-09-30 14:06:49
2928151 jumbo-sr.com 1 No Rank 2011-09-30 14:06:52
2928152 juliaharriswexler.com 2 No Rank 2011-09-30 14:06:52
2928153 myseolicious.com 0 No Rank 2011-09-30 14:06:53
2928154 jumpjumpjumpers.com 1 No Rank 2011-09-30 14:06:57
2928155 junctionrecords.com 3 No Rank 2011-09-30 14:07:01
2928156 jungle-gym.hu 2 No Rank 2011-09-30 14:07:09
2928157 jusalda.com 3 24486732 2011-09-30 14:07:20
2928158 jurbi.ru 4 4027649 2011-09-30 14:07:21
2928159 justiceisnogame.org 3 22998272 2011-09-30 14:07:26
2928160 justchecked-in.com 0 7087672 2011-09-30 14:07:29
2928161 justincredible.net 1 23755076 2011-09-30 14:07:34
2928162 justjoaquin.com 3 13886949 2011-09-30 14:07:39
2928163 juvelyras.puslapiai.lt 3 99276 2011-09-30 14:07:45
2928164 juveniledefense.com 3 9778924 2011-09-30 14:07:48
2928165 justinbiebermusic.tk 5 No Rank 2011-09-30 14:07:52
2928166 jyouhi.com 1 No Rank 2011-09-30 14:07:55
2928167 k-56.com 3 19086660 2011-09-30 14:07:58
2928168 shoebill.co.za 3 No Rank 2011-09-30 14:07:59
2928169 qdanzhen.com 0 10424944 2011-09-30 14:08:00
2928170 k-monitor.hu 4 3049554 2011-09-30 14:08:06
2928171 homewoodwinery.com 4 5627520 2011-09-30 14:08:08
2928172 ka-tsura.net 0 No Rank 2011-09-30 14:08:09
2928173 kaaresorensen.dk 2 9935637 2011-09-30 14:08:13
2928174 banburymarqueehire.co.uk 1 9804842 2011-09-30 14:08:16
2928175 guidetothecity.biz 3 1570694 2011-09-30 14:08:16
2928176 izo.com.au 0 5930495 2011-09-30 14:08:19
2928177 kabmurungraya.go.id 3 4215696 2011-09-30 14:08:19
2928178 alangreene.southasiamaps.com 0 No Rank 2011-09-30 14:08:20
2928179 kabaduz.meb.gov.tr 3 2919 2011-09-30 14:08:21
2928180 kadosho.com 1 916316 2011-09-30 14:08:25
2928181 kaguranger.com 1 No Rank 2011-09-30 14:08:29
2928182 glee.smule.com 5 148430 2011-09-30 14:08:35
2928183 kahita.net 3 9195313 2011-09-30 14:08:35
2928184 stoffelswereldweb.cjb.net 0 16656 2011-09-30 14:08:38
2928185 kaisersgarage.com 0 No Rank 2011-09-30 14:08:40
2928186 kailuacanoeclub.com 3 6718799 2011-09-30 14:08:42
2928187 kaitlinkroegerphotography.com 0 No Rank 2011-09-30 14:08:44
2928188 kaizenmuaythai.com 0 No Rank 2011-09-30 14:08:51
2928189 kakedera.com 2 No Rank 2011-09-30 14:08:57
2928190 kalkaphotography.com 0 No Rank 2011-09-30 14:08:57
2928191 kalle-k.dk 3 26520495 2011-09-30 14:09:02
2928192 kallistra.nl 1 No Rank 2011-09-30 14:09:03
2928193 sasfitness.ca 0 No Rank 2011-09-30 14:09:06
2928194 kamcs.org 2 No Rank 2011-09-30 14:09:09
2928195 greenlandcarpentry.co.uk 0 No Rank 2011-09-30 14:09:12
2928196 kam-c.com 0 No Rank 2011-09-30 14:09:12
2928197 kamnivsadu.com 0 17572651 2011-09-30 14:09:16
2928198 kampangsanrottweiler.com 0 No Rank 2011-09-30 14:09:17
2928199 kanagawastandard.com 3 3922376 2011-09-30 14:09:20
2928200 kandctransport.com 2 No Rank 2011-09-30 14:09:24
2928201 kanal2000.com.tr 5 12208626 2011-09-30 14:09:25
2928202 newinnoval-corp.com 0 No Rank 2011-09-30 14:09:27
2928203 kanrekiiwai.com 2 1633021 2011-09-30 14:09:30
2928204 bethbydesign.com 0 3866779 2011-09-30 14:09:31
2928205 kantorei.net 3 18475887 2011-09-30 14:09:31
2928206 grandhaunt.org 0 No Rank 2011-09-30 14:09:32
2928207 kanzius.org 4 4863863 2011-09-30 14:09:35
2928208 hedtfeld.com 0 No Rank 2011-09-30 14:09:36
2928209 optimanufacturing.com 3 No Rank 2011-09-30 14:09:38
2928210 kap-stadt-zwenkau.com 4 No Rank 2011-09-30 14:09:41
2928211 kapsalon-allure.nl 0 No Rank 2011-09-30 14:09:45
2928212 maps.glendale-community-college-transfer-center-calendar-csun.andrinda.net 0 2716059 2011-09-30 14:09:49
2928213 karavanymk.cz 1 6098904 2011-09-30 14:09:54
2928214 turk-yunan.gen.tr 0 27412296 2011-09-30 14:09:54
2928215 karbyhallen.se 1 No Rank 2011-09-30 14:09:56
2928216 kardiologlublin.pl 1 No Rank 2011-09-30 14:09:58
2928217 originaltotalsolution.net 0 No Rank 2011-09-30 14:09:58
2928218 karinhotel.hu 3 11663341 2011-09-30 14:10:02
2928219 karlal.com 3 No Rank 2011-09-30 14:10:06
2928220 karlshiflett.com 3 5909743 2011-09-30 14:10:09
2928221 karma-cambodia.com 0 No Rank 2011-09-30 14:10:12
2928222 web1.wzq.pl 0 No Rank 2011-09-30 14:10:16
2928223 kasaihouchiki.net 2 No Rank 2011-09-30 14:10:20
2928224 kaseytotherescue.com 4 19345939 2011-09-30 14:10:24
2928225 candidainfection.us 0 No Rank 2011-09-30 14:10:28
2928226 kasperchristiansen.dk 2 No Rank 2011-09-30 14:10:32
2928227 kassens-sfk.se 1 No Rank 2011-09-30 14:10:36
2928228 kashmircouncil.eu 0 14421530 2011-09-30 14:10:37
2928229 katebellingham.com 3 25054335 2011-09-30 14:10:42
2928230 katarzyn.mblog.pl 0 181261 2011-09-30 14:10:43
2928231 kathleenmajdali.com 0 No Rank 2011-09-30 14:10:47
2928232 kathyart.com 0 No Rank 2011-09-30 14:10:51
2928233 kathyminnich.com 0 No Rank 2011-09-30 14:10:54
2928234 kavanjin.com 3 No Rank 2011-09-30 14:10:58
2928235 kremkowconsulting.com 1 4634190 2011-09-30 14:10:58
2928236 fit-facts.com 0 1262116 2011-09-30 14:11:00
2928237 legalsmith.com 1 No Rank 2011-09-30 14:11:02
2928238 kawai-law.net 2 8550361 2011-09-30 14:11:03
2928239 kawamura-trading.com 1 No Rank 2011-09-30 14:11:14
2928240 dxbsx.com 0 15180930 2011-09-30 14:11:14
2928241 kayadayspa.com 3 3575220 2011-09-30 14:11:23
2928242 orthodoxengland.btinternet.co.uk 5 13109 2011-09-30 14:11:25
2928243 kayaklakegeorge.com 2 12371755 2011-09-30 14:11:26
2928244 kayales.eu 1 27425974 2011-09-30 14:11:29
2928245 kavdesign.net 3 1103614 2011-09-30 14:11:29
2928246 mideastracing.com 2 9691933 2011-09-30 14:11:31
2928247 kbath.com 0 No Rank 2011-09-30 14:11:34
2928248 kcdk.com 0 No Rank 2011-09-30 14:11:39
2928249 lewisind.com 0 No Rank 2011-09-30 14:11:40
2928250 kchuc.ru 0 No Rank 2011-09-30 14:11:43
2928251 kdbookstore.com 0 No Rank 2011-09-30 14:11:44
2928252 kech95.com 3 23083542 2011-09-30 14:11:48
2928253 teamqueststaffing.com 1 No Rank 2011-09-30 14:11:50
2928254 keefercourt.com 3 15411986 2011-09-30 14:11:52
2928255 eating-fuk.com 2 No Rank 2011-09-30 14:11:53
2928256 kehilatsephardim.org 3 No Rank 2011-09-30 14:11:58
2928257 elecape.com 1 No Rank 2011-09-30 14:12:00
2928258 keikou.net 0 No Rank 2011-09-30 14:12:04
2928259 universaltrannies.com 0 15684488 2011-09-30 14:12:09
2928260 keiyo-auto.com 1 No Rank 2011-09-30 14:12:09
2928261 kelleymotorsportsllc.com 0 No Rank 2011-09-30 14:12:10
2928262 kellystore.net 2 16689027 2011-09-30 14:12:13
2928263 kemperstraps.com 0 No Rank 2011-09-30 14:12:15
2928264 kenko-shopping.com 0 No Rank 2011-09-30 14:12:24
2928265 kenkou-100.net 2 7790066 2011-09-30 14:12:29
2928266 vashelles.com 0 No Rank 2011-09-30 14:12:29
2928267 kenkukfa.com 0 No Rank 2011-09-30 14:12:29
2928268 epicdist.com 0 2162743 2011-09-30 14:12:32
2928269 kenrevis.com 0 No Rank 2011-09-30 14:12:33
2928270 kennellanka.com 0 9274606 2011-09-30 14:12:33
2928271 brazilianconsulates.com 0 No Rank 2011-09-30 14:12:44
2928272 kensimpson.ca 0 No Rank 2011-09-30 14:12:55
2928273 kensingtonhistory.org 4 No Rank 2011-09-30 14:12:58
2928274 kentdgustafson.com 0 No Rank 2011-09-30 14:13:02
2928275 kentuckyfurnituremart.com 1 22621767 2011-09-30 14:13:13
2928276 kenyonprice.com 0 No Rank 2011-09-30 14:13:16
2928277 ker-yug.ru 2 No Rank 2011-09-30 14:13:19
2928278 keralaestore.com 0 21947765 2011-09-30 14:13:24
2928279 kerg-ufa.ru 2 5891793 2011-09-30 14:13:25
2928280 keskusoptiikka.fi 0 No Rank 2011-09-30 14:13:30
2928281 globehomesandcondos.com 2 1153552 2011-09-30 14:13:32
2928282 kevinghill.com 3 16334339 2011-09-30 14:13:34
2928283 kevingoodwincomedian.com 3 No Rank 2011-09-30 14:13:39
2928284 kevinkdesigns.com 1 No Rank 2011-09-30 14:13:40
2928285 shellstudios.co.nz 0 No Rank 2011-09-30 14:13:42
2928286 key-title.com 2 No Rank 2011-09-30 14:13:44
2928287 emergentpodcasts.com 2 4167602 2011-09-30 14:13:49
2928288 keybuyer8.com 0 No Rank 2011-09-30 14:13:51
2928289 keypro.ro 0 6665022 2011-09-30 14:13:51
2928290 keystonehealthconference.org 1 No Rank 2011-09-30 14:13:54
2928291 keystonervwholesalers.com 3 23756262 2011-09-30 14:13:57
2928292 keyyale.com 2 16131795 2011-09-30 14:14:02
2928293 keywest-group.com 1 20820149 2011-09-30 14:14:03
2928294 kfdesigns.com 3 No Rank 2011-09-30 14:14:09
2928295 aecrc.org 4 No Rank 2011-09-30 14:14:14
2928296 kgabangalore.com 0 No Rank 2011-09-30 14:14:18
2928297 khabir.org 0 2877299 2011-09-30 14:14:20
2928298 kibougaoka.com 1 No Rank 2011-09-30 14:14:23
2928299 kidsbibletime.com 0 No Rank 2011-09-30 14:14:26
2928300 kidspartypro.com 1 No Rank 2011-09-30 14:14:29
2928301 kidwhys.com 0 No Rank 2011-09-30 14:14:32
2928302 kiemtinh.org 0 28221470 2011-09-30 14:14:36
2928303 kidz-blitz.de 2 12985309 2011-09-30 14:14:37
2928304 killture.com 2 17272013 2011-09-30 14:14:43
2928305 killer-creation.com 0 No Rank 2011-09-30 14:14:43
2928306 kilmarnockbaptistchurch.com 2 No Rank 2011-09-30 14:14:47
2928307 kimdionis.com 2 No Rank 2011-09-30 14:14:47
2928308 recycle.za.org 0 No Rank 2011-09-30 14:14:50
2928309 kinder-kirche.de.vu 0 No Rank 2011-09-30 14:14:54
2928310 kinderschool.org 3 No Rank 2011-09-30 14:14:57
2928311 kindleylawyers.com 1 No Rank 2011-09-30 14:15:04
2928312 krugernational.net 2 No Rank 2011-09-30 14:15:09
2928313 kindredcrossingsfarm.com 3 19988951 2011-09-30 14:15:10
2928314 kine4kids.be 0 No Rank 2011-09-30 14:15:14
2928315 kingdomcenterministriesinc.com 0 No Rank 2011-09-30 14:15:17
2928316 kinderfliegen.com 0 No Rank 2011-09-30 14:15:23
2928317 kingdomcomealaska.com 3 No Rank 2011-09-30 14:15:23
2928318 kingfll.com 0 No Rank 2011-09-30 14:15:27
2928319 kinneygroup.com 2 23179464 2011-09-30 14:15:34
2928320 kioslaptop.com 0 No Rank 2011-09-30 14:15:38
2928321 kirari3.com 1 No Rank 2011-09-30 14:15:40
2928322 kirstenernst.dk 2 No Rank 2011-09-30 14:15:45
2928323 kwazulunatal.za.org 0 No Rank 2011-09-30 14:15:45
2928324 kirn-traiteur.fr 2 25181391 2011-09-30 14:15:47
2928325 kirstenkuehndesigns.com 1 6910417 2011-09-30 14:15:49
2928326 kissbigego.com 2 4077396 2011-09-30 14:15:51
2928327 kittanningtwpfire.com 3 No Rank 2011-09-30 14:16:01
2928328 thepowerwithin.cjb.net 0 16656 2011-09-30 14:16:01
2928329 kitchentimer.info 0 No Rank 2011-09-30 14:16:02
2928330 kjewelwholesale.com 1 No Rank 2011-09-30 14:16:10
2928331 kkcw.co.za 0 No Rank 2011-09-30 14:16:15
2928332 kkl-uffikon.ch 4 No Rank 2011-09-30 14:16:18
2928333 kle500.myforum.ro 1 102492 2011-09-30 14:16:23
2928334 kleclercq.com 1 No Rank 2011-09-30 14:16:25
2928335 jpibanez.com 0 12353123 2011-09-30 14:16:26
2928336 klinmusic.com 0 No Rank 2011-09-30 14:16:31
2928337 indulgeja.com 3 1896916 2011-09-30 14:16:32
2928338 klmfitness.com 2 7947554 2011-09-30 14:16:33
2928339 kluang.malaysia.asia.karmapa.tel 0 14378218 2011-09-30 14:16:36
2928340 kmaj.org 0 No Rank 2011-09-30 14:16:37
2928341 jamesandjoseph.net 2 13065585 2011-09-30 14:16:38
2928342 kmr86.com 0 No Rank 2011-09-30 14:16:41
2928343 knaturals.com 1 No Rank 2011-09-30 14:16:44
2928344 knightdust.com 0 No Rank 2011-09-30 14:16:46
2928345 knitandstitchboutique.com 2 11432783 2011-09-30 14:16:48
2928346 knoxvillelitigationattorney.com 0 No Rank 2011-09-30 14:16:51
2928347 kntc.info 0 No Rank 2011-09-30 14:16:56
2928348 tubbshill.org 2 No Rank 2011-09-30 14:16:59
2928349 kocakoy.gov.tr 3 17602892 2011-09-30 14:17:02
2928350 kobremediaguide.com 0 No Rank 2011-09-30 14:17:03
2928351 zondercondoom4339.sexdating2.info 0 No Rank 2011-09-30 14:17:09
2928352 koehlstaxidermy.com 0 No Rank 2011-09-30 14:17:17
2928353 koei-factory-farm.com 1 No Rank 2011-09-30 14:17:18
2928354 bitelectroniccomponents.com 0 No Rank 2011-09-30 14:17:18
2928355 koesselstudios.com 1 12939634 2011-09-30 14:17:22
2928356 koifishtattoo.net 1 5354002 2011-09-30 14:17:24
2928357 kokaspeles.lv 2 19123966 2011-09-30 14:17:29
2928358 koksburo.nl 1 No Rank 2011-09-30 14:17:30
2928359 kolap.hu 3 No Rank 2011-09-30 14:17:33
2928360 sugarclub-forum.marlito.com 0 49205 2011-09-30 14:17:37
2928361 kolibriproject.org 0 No Rank 2011-09-30 14:17:38
2928362 kolortech.pl 2 No Rank 2011-09-30 14:17:43
2928363 kominari.cz 3 1417405 2011-09-30 14:17:45
2928364 kondo-law.jp 1 No Rank 2011-09-30 14:17:50
2928365 ifahja.com 2 4069744 2011-09-30 14:17:54
2928366 afrikaansevrouwen983889.sexdating2.info 0 No Rank 2011-09-30 14:17:55
2928367 koophuis-tehuur.com 0 No Rank 2011-09-30 14:17:56
2928368 koperwiekfeesten.mijnverstand.be 0 3922238 2011-09-30 14:17:59
2928369 koppsdecorating.com 0 No Rank 2011-09-30 14:18:01
2928370 koreinfotech.com 0 22419396 2011-09-30 14:18:07
2928371 korekini.com 3 182362 2011-09-30 14:18:08
2928372 top-jokes.co.cc 0 No Rank 2011-09-30 14:18:12
2928373 kormuha.ru 0 No Rank 2011-09-30 14:18:13
2928374 korus.com 2 21274518 2011-09-30 14:18:18
2928375 kosciolgarnizon.wroclaw.pl 2 22317089 2011-09-30 14:18:19
2928376 kosmoniq.com 2 No Rank 2011-09-30 14:18:22
2928377 kostenlos-mms.com 0 25293927 2011-09-30 14:18:30
2928378 kotikauplus.ee 3 14148129 2011-09-30 14:18:33
2928379 applywithin.com 3 19275917 2011-09-30 14:18:35
2928380 kottlerlaw.com 4 2820706 2011-09-30 14:18:38
2928381 myhotelsinjamaica.com 0 17935029 2011-09-30 14:18:39
2928382 kotsch.be 2 No Rank 2011-09-30 14:18:39
2928383 kouhokumassage.com 1 No Rank 2011-09-30 14:18:43
2928384 miedzyrzecz.top-ogloszenia.com 0 681908 2011-09-30 14:18:43
2928385 kountzemlc.org 0 No Rank 2011-09-30 14:18:46
2928386 max.phaisarn15989.paid-surveys-review.org 0 1027478 2011-09-30 14:18:49
2928387 kovarina.webz.cz 3 114051 2011-09-30 14:18:50
2928388 kovo-ostrava.cz 2 22149642 2011-09-30 14:18:54
2928389 games.southasiamaps.com 0 No Rank 2011-09-30 14:18:55
2928390 kpnvandaag.net 0 No Rank 2011-09-30 14:18:58
2928391 krav.pro 2 4642412 2011-09-30 14:19:03
2928392 kristablondin.com 2 No Rank 2011-09-30 14:19:06
2928393 kristjanoden.com 0 27315126 2011-09-30 14:19:13
2928394 kristyhagar.com 2 No Rank 2011-09-30 14:19:14
2928395 krisvonbankrecruiting.com 0 No Rank 2011-09-30 14:19:17
2928396 want2brag.com 2 5657607 2011-09-30 14:19:23
2928397 kronos-porsche.be 3 3622659 2011-09-30 14:19:24
2928398 instepschoolofdance.com 1 No Rank 2011-09-30 14:19:27
2928399 kru-mon.com 1 7077650 2011-09-30 14:19:38
2928400 faisal-z.blogspot.com 0 No Rank 2011-09-30 14:19:41
2928401 ks-bluewater.com 0 No Rank 2011-09-30 14:19:43
2928402 kkspring.com 0 No Rank 2011-09-30 14:19:44
2928403 womens-golf-accessories.com 0 No Rank 2011-09-30 14:19:52
2928404 kshamasaple.com 0 20820240 2011-09-30 14:19:52
2928405 ktpraxis-berlin.de 1 5575895 2011-09-30 14:20:00
2928406 kubus-bilet.ru 0 11507640 2011-09-30 14:20:02
2928407 grotetieten291.sexdating2.info 0 No Rank 2011-09-30 14:20:06
2928408 kud-slavkojankovic.hr 1 No Rank 2011-09-30 14:20:12
2928409 kumaraswamy-worldwidetravels.com 1 No Rank 2011-09-30 14:20:16
2928410 mightylib.cellular-phone-provider.com 0 7150905 2011-09-30 14:20:21
2928411 kunwor.com 0 No Rank 2011-09-30 14:20:22
2928412 kultimunicipality.com 0 3219009 2011-09-30 14:20:25
2928413 kuperentertainment.com 0 19225215 2011-09-30 14:20:26
2928414 mightylib.extendedstay2.com 0 No Rank 2011-09-30 14:20:29
2928415 kurti.lv 2 26390949 2011-09-30 14:20:30
2928416 aaoo.tk 0 No Rank 2011-09-30 14:20:31
2928417 ccdd.tk 0 No Rank 2011-09-30 14:20:31
2928418 kusadasitorosrestaurant.com 0 No Rank 2011-09-30 14:20:32
2928419 kuwaitquest.tel 2 17230992 2011-09-30 14:20:34
2928420 kvartal74.ru 0 No Rank 2011-09-30 14:20:39
2928421 kveiborg.dk 2 No Rank 2011-09-30 14:20:39
2928422 zzss.tk 0 No Rank 2011-09-30 14:20:41
2928423 zzaa.tk 0 No Rank 2011-09-30 14:20:44
2928424 kwfriendsofdorothy.ca 2 No Rank 2011-09-30 14:20:45
2928425 indexed.phaisarn15989.paid-surveys-review.org 0 1027478 2011-09-30 14:20:47
2928426 zzdd.tk 0 No Rank 2011-09-30 14:20:49
2928427 kymco.com.mx 2 896030 2011-09-30 14:20:55
2928428 zzjj.tk 0 No Rank 2011-09-30 14:20:57
2928429 l2gconsult.org 1 13207863 2011-09-30 14:20:59
2928430 zio.informe.com 0 4564 2011-09-30 14:21:05
2928431 l9.ro 1 8806630 2011-09-30 14:21:05
2928432 essenceeventplanning.net 1 No Rank 2011-09-30 14:21:05
2928433 la-cigogne.net 2 8609313 2011-09-30 14:21:14
2928434 ghdxb.com 0 No Rank 2011-09-30 14:21:18
2928435 laajennus.com 0 22033960 2011-09-30 14:21:19
2928436 labarthe12.net 1 19361222 2011-09-30 14:21:24
2928437 labrace.ro 0 25497181 2011-09-30 14:21:31
2928438 lacajaencantada.com 3 3244414 2011-09-30 14:21:42
2928439 lacenteronline.com 1 15932913 2011-09-30 14:21:48
2928440 ladiesofvirtue.org 0 No Rank 2011-09-30 14:21:52
2928441 lady-stellamorgan.com 0 No Rank 2011-09-30 14:21:57
2928442 yobito.aa-hosting.com 0 No Rank 2011-09-30 14:21:59
2928443 ladytatiana-charters.com 0 No Rank 2011-09-30 14:22:07
2928444 kxppr.com 0 No Rank 2011-09-30 14:22:10
2928445 ladywhitejade.com 0 No Rank 2011-09-30 14:22:13
2928446 laetitia-mounier.com 1 11813853 2011-09-30 14:22:17
2928447 northtexas.scout.com 4 1838 2011-09-30 14:22:18
2928448 laguardiasbistro.com 2 No Rank 2011-09-30 14:22:18
2928449 holyfamilyicc.com 2 4307729 2011-09-30 14:22:22
2928450 lagunenfiskepark.dk 3 No Rank 2011-09-30 14:22:23
2928451 lahnuksenratsastuskoulu.fi 3 No Rank 2011-09-30 14:22:23
2928452 laid.com 3 11349982 2011-09-30 14:22:27
2928453 lairdelectricco.com 1 No Rank 2011-09-30 14:22:28
2928454 lakehouse-cooperstown.com 3 14329415 2011-09-30 14:22:31
2928455 lakesidebudgetstorage.com 1 No Rank 2011-09-30 14:22:39
2928456 lakeozarksummerfun.com 0 No Rank 2011-09-30 14:22:40
2928457 laluzevents.com 2 15218712 2011-09-30 14:22:47
2928458 lakewoodphotographicsociety.org 2 No Rank 2011-09-30 14:22:59
2928459 bestonlineclassifieds.com 1 561613 2011-09-30 14:23:05
2928460 lamdserviss.lv 2 No Rank 2011-09-30 14:23:06
2928461 lambluv.com 2 19445512 2011-09-30 14:23:08
2928462 roteirosdegalicia.superforo.net 1 19321 2011-09-30 14:23:12
2928463 lamicrogreffe.com 0 No Rank 2011-09-30 14:23:14
2928464 forex.southasiamaps.com 0 No Rank 2011-09-30 14:23:17
2928465 lammstudio.com 0 No Rank 2011-09-30 14:23:18
2928466 lampmurano.com 0 No Rank 2011-09-30 14:23:19
2928467 lampshopenfalun.se 1 No Rank 2011-09-30 14:23:22
2928468 lamro.com 2 6480235 2011-09-30 14:23:23
2928469 lanas.lv 0 No Rank 2011-09-30 14:23:30
2928470 landrover.uw.hu 0 22364 2011-09-30 14:23:37
2928471 johncena.in 0 No Rank 2011-09-30 14:23:39
2928472 landskronavarvet.com 0 No Rank 2011-09-30 14:23:39
2928473 landworks-boston.com 0 No Rank 2011-09-30 14:23:41
2928474 lanebrody.com 3 No Rank 2011-09-30 14:23:45
2928475 debtcollectionindia.com 0 No Rank 2011-09-30 14:23:51
2928476 langhorns.com 3 No Rank 2011-09-30 14:23:51
2928477 lani-kai.jp 0 No Rank 2011-09-30 14:23:56
2928478 lapcmusic.com 3 No Rank 2011-09-30 14:24:00
2928479 lapesarde.com 0 No Rank 2011-09-30 14:24:06
2928480 lapineta.info 0 25199163 2011-09-30 14:24:10
2928481 deniselevinerealty.com 1 No Rank 2011-09-30 14:24:14
2928482 laplusbellemariee.com 1 24689560 2011-09-30 14:24:15
2928483 terry-tech.com 0 No Rank 2011-09-30 14:24:23
2928484 lanfactory.org 0 No Rank 2011-09-30 14:24:24
2928485 laramiedean.com 3 No Rank 2011-09-30 14:24:25
2928486 larawer.flappie.nl 0 1337580 2011-09-30 14:24:28
2928487 larisadawn.com 1 No Rank 2011-09-30 14:24:34
2928488 laribeyre.com 2 2381834 2011-09-30 14:24:35
2928489 fbcover.blog.com 0 1088 2011-09-30 14:24:36
2928490 larkandvinedesign.com 0 No Rank 2011-09-30 14:24:39
2928491 larryapp.net 0 No Rank 2011-09-30 14:24:40
2928492 larrycoleinsuranceagency.com 1 No Rank 2011-09-30 14:24:47
2928493 laryngolog-kalisz.pl 1 No Rank 2011-09-30 14:24:50
2928494 newspmr.ru 0 No Rank 2011-09-30 14:24:52
2928495 bimedia.org 5 6550509 2011-09-30 14:24:52
2928496 cabinetpulls.dealshopcenter.com 0 No Rank 2011-09-30 14:24:53
2928497 laserfinder.se 2 No Rank 2011-09-30 14:24:53
2928498 lastminutecentar.com 2 3610332 2011-09-30 14:24:56
2928499 notrightpodcast.com 2 1945132 2011-09-30 14:24:57
2928500 rocko.wen.ru 2 16640 2011-09-30 14:24:58
2928501 latiendadeltenis.com 2 8582661 2011-09-30 14:25:03
2928502 abbotsfordhouse.com 3 14338110 2011-09-30 14:25:04
2928503 newphonetracker.blogspot.com 0 4791604 2011-09-30 14:25:26
2928504 lauraday.info 1 No Rank 2011-09-30 14:25:31
2928505 latinodatingtoday.com 0 No Rank 2011-09-30 14:25:36
2928506 lauratattersall.com 1 No Rank 2011-09-30 14:25:36
2928507 lauraweintraub.org 0 No Rank 2011-09-30 14:25:41
2928508 tvguide.indiatimes.com 3 142 2011-09-30 14:25:41
2928509 lauriehuss.com 0 No Rank 2011-09-30 14:25:48
2928510 laurilasurveying.com 1 No Rank 2011-09-30 14:25:51
2928511 lavenderandroses.org 1 No Rank 2011-09-30 14:25:55
2928512 lavenderspaandnailsalon.com 1 15500842 2011-09-30 14:25:56
2928513 lavoixenresonance.com 2 No Rank 2011-09-30 14:26:01
2928514 lavo.se 1 No Rank 2011-09-30 14:26:01
2928515 lawbookset.com 0 No Rank 2011-09-30 14:26:06
2928516 lawfirmmexico.com 3 20993778 2011-09-30 14:26:10
2928517 lawfirm-lejuez.com 0 No Rank 2011-09-30 14:26:11
2928518 lawsonia.org 3 22999973 2011-09-30 14:26:15
2928519 goldentrianglepackages.com 0 7606785 2011-09-30 14:26:21
2928520 lbimuseum.org 4 7395513 2011-09-30 14:26:27
2928521 house.vemmamangosteen.vemma.com 0 28280 2011-09-30 14:26:29
2928522 lcia-recipe.net 5 20910489 2011-09-30 14:26:31
2928523 citv5.com 3 20335116 2011-09-30 14:26:34
2928524 ldp07.com 0 No Rank 2011-09-30 14:26:35
2928525 leadnetproreg.com 0 No Rank 2011-09-30 14:26:36
2928526 josin.tk 0 No Rank 2011-09-30 14:26:37
2928527 leadsafeillinois.org 4 21127987 2011-09-30 14:26:41
2928528 leaf.fi 5 3968700 2011-09-30 14:26:45
2928529 leahfordphotography.com 1 No Rank 2011-09-30 14:26:47
2928530 learninggardenpreschoolbillerica.com 1 No Rank 2011-09-30 14:26:55
2928531 learningguruacademy.com 0 No Rank 2011-09-30 14:26:56
2928532 learnpolishinwarsaw.pl 3 22963096 2011-09-30 14:27:02
2928533 leasafric.com 2 No Rank 2011-09-30 14:27:03
2928534 bikesale.us 0 21266284 2011-09-30 14:27:07
2928535 leatavast.com 0 No Rank 2011-09-30 14:27:10
2928536 lebasbray.com 1 No Rank 2011-09-30 14:27:11
2928537 familyfirstchildrenservices.org 0 No Rank 2011-09-30 14:27:13
2928538 lebocalaboutons.com 2 No Rank 2011-09-30 14:27:14
2928539 leblogdelamechante.fr 5 90358 2011-09-30 14:27:15
2928540 lechuguillas.com 3 No Rank 2011-09-30 14:27:19
2928541 lechugaverde.net 3 608880 2011-09-30 14:27:19
2928542 commission-central.buikpijn33.jigsy.com 0 10794 2011-09-30 14:27:20
2928543 leclossaintsaourde.com 3 2982767 2011-09-30 14:27:25
2928544 ledesirade.com 1 No Rank 2011-09-30 14:27:26
2928545 buikpijn33.jigsy.com 0 10794 2011-09-30 14:27:29
2928546 103rdfighterwing.com 2 24964399 2011-09-30 14:27:29
2928547 lefeberturf.com 0 No Rank 2011-09-30 14:27:30
2928548 leesbikes.com 3 6690583 2011-09-30 14:27:30
2928549 lithopolis.com 4 20396322 2011-09-30 14:27:32
2928550 commission-central.phaisarn15989.paid-surveys-review.org 0 1027478 2011-09-30 14:27:34
2928551 legaldatasolutions.com 0 No Rank 2011-09-30 14:27:37
2928552 legacyturizm.com.tr 2 28701875 2011-09-30 14:27:37
2928553 legalindustryresearch.com 4 24060177 2011-09-30 14:27:40
2928554 legallyprotectmyhome.com 0 No Rank 2011-09-30 14:27:40
2928555 ear-for-you.com 0 No Rank 2011-09-30 14:27:44
2928556 legends-of.com 1 No Rank 2011-09-30 14:27:47
2928557 rknaklo.com 2 2840530 2011-09-30 14:27:49
2928558 legiontheory.com 0 No Rank 2011-09-30 14:27:52
2928559 autoleaseco.com 3 No Rank 2011-09-30 14:27:54
2928560 legiobuli.hu 0 No Rank 2011-09-30 14:27:54
2928561 legionxiiigemina.com 0 No Rank 2011-09-30 14:27:55
2928562 energydoctorsofcentraltexas.com 0 No Rank 2011-09-30 14:28:00
2928563 legrandbateau.com 3 19355182 2011-09-30 14:28:02
2928564 stardoll.textphilippines.org 0 490278 2011-09-30 14:28:07
2928565 lejeunelincoln.com 2 No Rank 2011-09-30 14:28:10
2928566 lejas.se 2 13618457 2011-09-30 14:28:15
2928567 lekarze-dermatolodzy.nysa.firmy-24h.pl 0 3546707 2011-09-30 14:28:16
2928568 lembergar.com 2 No Rank 2011-09-30 14:28:19
2928569 lekub.music.free.fr 1 208 2011-09-30 14:28:19
2928570 glynae.divkynahe.cz 0 No Rank 2011-09-30 14:28:23
2928571 farrowroaddental.com 1 No Rank 2011-09-30 14:28:31
2928572 sjgheatinc.com 2 No Rank 2011-09-30 14:28:33
2928573 actor.phaisarn15989.paid-surveys-review.org 0 1027478 2011-09-30 14:28:34
2928574 lemonloveblog.com 1 No Rank 2011-09-30 14:28:42
2928575 lenclume.be 0 No Rank 2011-09-30 14:28:44
2928576 gsavanti.co.uk 2 No Rank 2011-09-30 14:28:44
2928577 leoinc.org 4 9687358 2011-09-30 14:28:48
2928578 leoquan.com 3 3337514 2011-09-30 14:28:52
2928579 oslugaresdemaria.no-ip.org 2 1388 2011-09-30 14:28:52
2928580 leonoticias.com 4 88516 2011-09-30 14:28:52
2928581 dxbcn.com 0 No Rank 2011-09-30 14:28:54
2928582 objectred.com 4 No Rank 2011-09-30 14:29:02
2928583 genicsys.com 0 No Rank 2011-09-30 14:29:08
2928584 leregain.fr 0 No Rank 2011-09-30 14:29:08
2928585 lesamoursdemado.com 3 3045728 2011-09-30 14:29:11
2928586 les13vieilles.com 1 No Rank 2011-09-30 14:29:12
2928587 lesnezacisze.agro.pl 1 No Rank 2011-09-30 14:29:17
2928588 lesliecervantez.com 1 No Rank 2011-09-30 14:29:18
2928589 inspirationalpoetrywriters.blogspot.com 0 No Rank 2011-09-30 14:29:18
2928590 old.med.textphilippines.org 0 490278 2011-09-30 14:29:22
2928591 phacts.net 2 No Rank 2011-09-30 14:29:24
2928592 lesschaosmorecash.com 1 No Rank 2011-09-30 14:29:26
2928593 lessonsfromjoey.com 0 No Rank 2011-09-30 14:29:27
2928594 lesterrasses.net 2 3853024 2011-09-30 14:29:32
2928595 letoiledumatin.fr 3 No Rank 2011-09-30 14:29:36
2928596 relaxandeat.com 0 No Rank 2011-09-30 14:29:42
2928597 lestersmith.com 3 3126294 2011-09-30 14:29:43
2928598 letsgo-peru.com 0 16180503 2011-09-30 14:29:46
2928599 letsleaf.com 0 No Rank 2011-09-30 14:29:50
2928600 symptomsofhivinwomen.net 0 No Rank 2011-09-30 14:29:52
2928601 letsleepingdogswalk.com 0 No Rank 2011-09-30 14:29:56
2928602 savannahbuilders.net 3 16633217 2011-09-30 14:30:01
2928603 leuthold-partner.ch 0 No Rank 2011-09-30 14:30:01
2928604 board.quick-web.com 0 323604 2011-09-30 14:30:07
2928605 lexingtonvinylsiding.com 3 No Rank 2011-09-30 14:30:09
2928606 lexsoma.com 1 7883721 2011-09-30 14:30:12
2928607 blackgoosechimney.com 2 22662081 2011-09-30 14:30:18
2928608 lexyfit.com 0 No Rank 2011-09-30 14:30:20
2928609 lgrefrigerators.org 0 No Rank 2011-09-30 14:30:23
2928610 lhpr.com 2 No Rank 2011-09-30 14:30:24
2928611 libertydebtcare.com 0 No Rank 2011-09-30 14:30:27
2928612 libertyhealth.com 4 9290170 2011-09-30 14:30:31
2928613 libertyrentsboston.com 2 11556305 2011-09-30 14:30:33
2928614 librairie-stephan.lebanonbookstores.tel 0 9022742 2011-09-30 14:30:35
2928615 lidle.ro 0 15129269 2011-09-30 14:30:37
2928616 pedsummer.org 2 4121236 2011-09-30 14:30:38
2928617 liendesfamilles.info 1 No Rank 2011-09-30 14:30:42
2928618 liebesbriefe-1.de.vu 0 No Rank 2011-09-30 14:30:44
2928619 liennepspforum.be 0 No Rank 2011-09-30 14:30:48
2928620 liero.be 3 4450328 2011-09-30 14:30:49
2928621 lifelongphotography.net 1 No Rank 2011-09-30 14:30:58
2928622 lifeontheedgetv.com 1 11028389 2011-09-30 14:30:59
2928623 lifetimecabinets.com 3 20049966 2011-09-30 14:31:04
2928624 lifesettlementlicense.com 1 No Rank 2011-09-30 14:31:06
2928625 liinternetservices.com 0 No Rank 2011-09-30 14:31:10
2928626 lightingawards.com 3 5202102 2011-09-30 14:31:11
2928627 likeababy.com 3 No Rank 2011-09-30 14:31:17
2928628 lilb.jp 5 3699632 2011-09-30 14:31:18
2928629 tangoargentinaclub.com 3 10467215 2011-09-30 14:31:19
2928630 homepager.tripod.buikpijn33.jigsy.com 0 10794 2011-09-30 14:31:21
2928631 lillian-aulie-schjoll.com 2 No Rank 2011-09-30 14:31:23
2928632 lim-samobor.hr 0 15741720 2011-09-30 14:31:27
2928633 lillylouise.de.vu 0 No Rank 2011-09-30 14:31:28
2928634 limetronic.com 2 7971203 2011-09-30 14:31:36
2928635 limelightusa.com 2 3478874 2011-09-30 14:31:39
2928636 limitededitionsgifts.com 1 No Rank 2011-09-30 14:31:42
2928637 visitalden.com 2 No Rank 2011-09-30 14:31:46
2928638 87087.zcwz.com 0 75761 2011-09-30 14:31:46
2928639 lindaclarkrealestate.com 0 No Rank 2011-09-30 14:31:53
2928640 lindy-net.lt 4 18181054 2011-09-30 14:31:55
2928641 lindysfurniture.com 2 5011858 2011-09-30 14:31:59
2928642 chiriquiproperties.com 0 No Rank 2011-09-30 14:31:59
2928643 linkdirectory.be 1 1434487 2011-09-30 14:32:02
2928644 linksupermarket.com 0 13220823 2011-09-30 14:32:03
2928645 toronto.en.celeb-jewels.com 0 14875732 2011-09-30 14:32:07
2928646 lippertstudio.com 0 No Rank 2011-09-30 14:32:09
2928647 liquidedgemag.com 1 No Rank 2011-09-30 14:32:13
2928648 liquidsystemsinc.com 2 No Rank 2011-09-30 14:32:14
2928649 lisabansavage.com 0 22076140 2011-09-30 14:32:17
2928650 choicenet-usa.com 1 No Rank 2011-09-30 14:32:17
2928651 lisarobbie.com 2 No Rank 2011-09-30 14:32:20
2928652 lisascinta.com 4 7255797 2011-09-30 14:32:22
2928653 lisettekipperphotography.com 0 No Rank 2011-09-30 14:32:27
2928654 flodaibk.se 3 No Rank 2011-09-30 14:32:28
2928655 lisbongreensardine.com 1 No Rank 2011-09-30 14:32:30
2928656 liszy.uw.hu 0 22364 2011-09-30 14:32:32
2928657 literaryjewels.com 3 2915160 2011-09-30 14:32:36
2928658 crossconservation.org 4 No Rank 2011-09-30 14:32:38
2928659 litigationwatch.com 3 No Rank 2011-09-30 14:32:39
2928660 jesmare.com 1 No Rank 2011-09-30 14:32:41
2928661 littledixbay.com 5 849276 2011-09-30 14:32:41
2928662 littlesilverdental.com 1 No Rank 2011-09-30 14:32:44
2928663 livada.pondi.hr 3 536076 2011-09-30 14:32:48
2928664 livingbeautifulradio.com 2 27067239 2011-09-30 14:32:59
2928665 livehimout.org 0 No Rank 2011-09-30 14:32:59
2928666 livingwaylr.org 0 No Rank 2011-09-30 14:33:07
2928667 liz-garrett.com 2 No Rank 2011-09-30 14:33:10
2928668 behindtheshears.com 0 No Rank 2011-09-30 14:33:11
2928669 lizrice.com 3 8882493 2011-09-30 14:33:15
2928670 ljmartintl.com 0 No Rank 2011-09-30 14:33:16
2928671 lkfmarketing.com 3 10902912 2011-09-30 14:33:19
2928672 lkfotos.net 1 No Rank 2011-09-30 14:33:20
2928673 selfstorage-units.co.uk 0 7882498 2011-09-30 14:33:30
2928674 5idc.info 2 1656656 2011-09-30 14:33:32
2928675 lkrecsak.uw.hu 3 22364 2011-09-30 14:33:35
2928676 costumefail.com 2 3263004 2011-09-30 14:33:36
2928677 lkoenig.com 0 No Rank 2011-09-30 14:33:42
2928678 gatewaydogtraining.com 2 12436950 2011-09-30 14:33:44
2928679 llt.cc 0 No Rank 2011-09-30 14:33:44
2928680 locacaoevendas.com 0 16518802 2011-09-30 14:33:49
2928681 lobiamobilya.com 0 11255697 2011-09-30 14:33:51
2928682 xixi.gk0.cn 0 167632 2011-09-30 14:33:51
2928683 localbramptonmortgagebroker.com 0 No Rank 2011-09-30 14:33:53
2928684 mycreativetouch.com 1 No Rank 2011-09-30 14:33:58
2928685 localtorontohomerenovation.com 0 No Rank 2011-09-30 14:33:58
2928686 localwinnipegcomputerrepair.com 0 No Rank 2011-09-30 14:34:02
2928687 localhumm.com 0 24061564 2011-09-30 14:34:08
2928688 localwinnipegdivorcelawyer.com 0 No Rank 2011-09-30 14:34:09
2928689 loftcatsoftware.com 2 No Rank 2011-09-30 14:34:14
2928690 location-hostel.ru 3 1582119 2011-09-30 14:34:14
2928691 wow.vemmamangosteen.vemma.com 0 28280 2011-09-30 14:34:16
2928692 logfina.com 3 No Rank 2011-09-30 14:34:19
2928693 lojadeluxo.com 0 No Rank 2011-09-30 14:34:20
2928694 andreabonifacio.com 1 No Rank 2011-09-30 14:34:20
2928695 lolasbigday.com 3 3596083 2011-09-30 14:34:25
2928696 lolaslakehouse.com 3 17198146 2011-09-30 14:34:25
2928697 shetagyan.kurdblogger.com 0 309324 2011-09-30 14:34:30
2928698 lomiranda.com 0 No Rank 2011-09-30 14:34:32
2928699 londongatwickairport.info 0 No Rank 2011-09-30 14:34:37
2928700 oxfordinvestmentgroup.com 1 No Rank 2011-09-30 14:34:37
2928701 lomondletting.com 0 No Rank 2011-09-30 14:34:44
2928702 lonelyadam.com 2 15957956 2011-09-30 14:34:47
2928703 longevityhealthcare.net 4 9848193 2011-09-30 14:34:54
2928704 7loavescommunity.org 2 7916436 2011-09-30 14:34:54
2928705 londonnfp.com 3 4709185 2011-09-30 14:34:56
2928706 longislandhshockey.net 3 10948593 2011-09-30 14:34:58
2928707 longziekte.write2me.nl 0 268404 2011-09-30 14:35:08
2928708 longshengfruit.com 0 No Rank 2011-09-30 14:35:15
2928709 look-vision.com 2 14429686 2011-09-30 14:35:17
2928710 nicotinegum.org.uk 0 7254013 2011-09-30 14:35:18
2928711 lookatmephotography.ca 0 No Rank 2011-09-30 14:35:18
2928712 bestwayrefinishing.com 1 20294853 2011-09-30 14:35:19
2928713 lookingoodesthetics.com 2 6730408 2011-09-30 14:35:22
2928714 lornashome.com 0 No Rank 2011-09-30 14:35:24
2928715 alderson-funerals.co.uk 1 No Rank 2011-09-30 14:35:24
2928716 losokcustomarms.com 0 No Rank 2011-09-30 14:35:26
2928717 loudounsketchclub.com 2 No Rank 2011-09-30 14:35:34
2928718 amyrealestate.com 0 No Rank 2011-09-30 14:35:35
2928719 chandelierthe.com 0 No Rank 2011-09-30 14:35:36
2928720 loungeeffect.com 0 6564207 2011-09-30 14:35:40
2928721 loveaffair-thebook.com 3 No Rank 2011-09-30 14:35:42
2928722 lovegives.net 1 No Rank 2011-09-30 14:35:44
2928723 mypowerinc.org 2 No Rank 2011-09-30 14:35:48
2928724 lovrinac.hr 3 16564602 2011-09-30 14:35:52
2928725 lowercongressionalsalaries.com 4 11365164 2011-09-30 14:35:58
2928726 lowkeykustoms.com 1 No Rank 2011-09-30 14:35:58
2928727 lpflorida.org 0 No Rank 2011-09-30 14:36:01
2928728 lrgames.info 0 28249715 2011-09-30 14:36:08
2928729 e-vemmamangosteen.vemma.com 0 28280 2011-09-30 14:36:11
2928730 lssassociates.com 1 6976246 2011-09-30 14:36:12
2928731 lsxpowertuning.com 0 No Rank 2011-09-30 14:36:14
2928732 ltraymurphy.org 1 No Rank 2011-09-30 14:36:17
2928733 kylesherrington.com 1 2532733 2011-09-30 14:36:19
2928734 lubbocklockandkey.com 2 No Rank 2011-09-30 14:36:21
2928735 lucianadesigns.com 1 13159879 2011-09-30 14:36:22
2928736 lucidomasonry.com 0 No Rank 2011-09-30 14:36:24
2928737 lucidrain.com 0 No Rank 2011-09-30 14:36:27
2928738 luckyacresstables.com 1 No Rank 2011-09-30 14:36:31
2928739 luigisitaliano.com 1 13840166 2011-09-30 14:36:33
2928740 lukasettlin.com 2 24062343 2011-09-30 14:36:34
2928741 luminescentsolar.com 1 No Rank 2011-09-30 14:36:40
2928742 lumio-locations.com 2 No Rank 2011-09-30 14:36:45
2928743 lumpan.ro 3 24553487 2011-09-30 14:36:46
2928744 jerseygirlssellnaples.com 1 8627200 2011-09-30 14:36:47
2928745 theviolentthreats.cjb.net 0 16656 2011-09-30 14:36:48
2928746 lunarace.com 3 No Rank 2011-09-30 14:36:51
2928747 stuffnstick.com 0 No Rank 2011-09-30 14:36:51
2928748 lungcancersymtoms.com 0 No Rank 2011-09-30 14:36:57
2928749 brandfreak.com 5 1210139 2011-09-30 14:37:02
2928750 011811.cn 0 No Rank 2011-09-30 14:37:06
2928751 lux-pack.ru 1 9962270 2011-09-30 14:37:09
2928752 lupalelah.com 0 27112153 2011-09-30 14:37:12
2928753 luxuryliving24-7.com 2 No Rank 2011-09-30 14:37:15
2928754 luxurycoastrealestate.com 0 No Rank 2011-09-30 14:37:17
2928755 lyon-communiques.com 4 512857 2011-09-30 14:37:23
2928756 lvdps.com 1 16941637 2011-09-30 14:37:25
2928757 lyoncountyks.org 3 No Rank 2011-09-30 14:37:25
2928758 lyttlejansengroup.com 0 No Rank 2011-09-30 14:37:31
2928759 m-scale.com 1 No Rank 2011-09-30 14:37:35
2928760 m1medical.com 0 No Rank 2011-09-30 14:37:37
2928761 mydogfoodrecipes.info 0 1700537 2011-09-30 14:37:41
2928762 ma-amsterdam.nl 5 5864465 2011-09-30 14:37:43
2928763 macconpublicsafety.com 1 No Rank 2011-09-30 14:37:48
2928764 maps.buikpijn33.jigsy.com 0 10794 2011-09-30 14:37:50
2928765 machine-learning.be 4 No Rank 2011-09-30 14:37:54
2928766 maciejwolanski.com 0 12825026 2011-09-30 14:37:58
2928767 macintoshfilerecovery.net 1 1738922 2011-09-30 14:38:02
2928768 mac-solusindo.com 2 2356424 2011-09-30 14:38:03
2928769 macyenta.com 3 20535860 2011-09-30 14:38:11
2928770 madansolutions.com 0 No Rank 2011-09-30 14:38:15
2928771 madarusi.hu 1 No Rank 2011-09-30 14:38:18
2928772 madelinecarolgallery.com 3 No Rank 2011-09-30 14:38:19
2928773 madkison.com 2 No Rank 2011-09-30 14:38:24
2928774 madmattsarmory.com 2 16988507 2011-09-30 14:38:26
2928775 madsweidemann.com 1 No Rank 2011-09-30 14:38:29
2928776 maga.biz.pl 2 No Rank 2011-09-30 14:38:32
2928777 magicoftyas.com 0 No Rank 2011-09-30 14:38:34
2928778 magrestoration.com 0 No Rank 2011-09-30 14:38:42
2928779 maharalinstitute.com 0 25146706 2011-09-30 14:38:44
2928780 mahewelfare.com 0 20864426 2011-09-30 14:38:47
2928781 mai-mag.com 0 11253221 2011-09-30 14:38:51
2928782 maidshiny.ca 2 No Rank 2011-09-30 14:38:54
2928783 music.celeb-jewels.com 0 14875732 2011-09-30 14:38:54
2928784 mail8823.com 2 No Rank 2011-09-30 14:38:56
2928785 maimon-shop.net 1 No Rank 2011-09-30 14:39:00
2928786 411iservices.com 0 No Rank 2011-09-30 14:39:00
2928787 mainedigital.com 2 No Rank 2011-09-30 14:39:03
2928788 mainecoondescoeursdecaroline.com 1 No Rank 2011-09-30 14:39:03
2928789 alynneinmalawi.com 2 1273716 2011-09-30 14:39:13
2928790 majale.freeblog.ir 1 29691 2011-09-30 14:39:17
2928791 vsemayki7185ww.chat.ru 0 24339 2011-09-30 14:39:20
2928792 majesticcountry.com 3 No Rank 2011-09-30 14:39:22
2928793 makemoneyon.com 1 15973871 2011-09-30 14:39:26
2928794 micromodemedical.com 0 No Rank 2011-09-30 14:39:26
2928795 iowagutterservices.com 0 No Rank 2011-09-30 14:39:27
2928796 maisondanielaponzio.com 0 18000372 2011-09-30 14:39:28
2928797 makemusicchicago.com 4 No Rank 2011-09-30 14:39:32
2928798 makethewebsimple.com 0 No Rank 2011-09-30 14:39:35
2928799 footychat.forumakers.com 0 86784 2011-09-30 14:39:37
2928800 makeyourbodyclean.com 0 11362357 2011-09-30 14:39:40
2928801 makibaylighting.com 1 No Rank 2011-09-30 14:39:42
2928802 maklingling.com 2 4131270 2011-09-30 14:39:44
2928803 malagaholidays.org 1 No Rank 2011-09-30 14:39:47
2928804 adnan-mahmud.blogspot.com 0 6472150 2011-09-30 14:39:47
2928805 maldim.ru 0 5971177 2011-09-30 14:39:54
2928806 malspol.com.pl 1 No Rank 2011-09-30 14:39:59
2928807 mamamiatickets.net 0 No Rank 2011-09-30 14:40:00
2928808 mame-shiba-inu.com 1 No Rank 2011-09-30 14:40:07
2928809 man1metro.org 0 24827073 2011-09-30 14:40:14
2928810 mana.co.id 0 No Rank 2011-09-30 14:40:16
2928811 managerkultury.lublin.pl 2 No Rank 2011-09-30 14:40:19
2928812 timeforlawyers.com 3 23066295 2011-09-30 14:40:20
2928813 bschockey.com 0 No Rank 2011-09-30 14:40:22
2928814 mancallednoon.com 0 No Rank 2011-09-30 14:40:28
2928815 mandypetrey.com 0 No Rank 2011-09-30 14:40:28
2928816 holidayprinting.com 1 No Rank 2011-09-30 14:40:28
2928817 manhattanrubbishremoval.com 0 No Rank 2011-09-30 14:40:31
2928818 manhattanstitching.com 3 20994161 2011-09-30 14:40:36
2928819 maninthemoon.jp 3 6691896 2011-09-30 14:40:37
2928820 b4e5e744n10qnbcntzkdq3jn8o.hop.clickbank.net 0 703 2011-09-30 14:40:38
2928821 blog.buikpijn33.jigsy.com 0 10794 2011-09-30 14:40:40
2928822 manovolvo.lt 0 No Rank 2011-09-30 14:40:44
2928823 manufakturamebli.com 0 No Rank 2011-09-30 14:40:45
2928824 store1.buikpijn33.jigsy.com 0 10759 2011-09-30 14:40:50
2928825 maplelinefarm.com 3 7834776 2011-09-30 14:40:51
2928826 maplesweddingcakes.com 3 12101682 2011-09-30 14:40:54
2928827 sairamtrust.in 0 No Rank 2011-09-30 14:40:54
2928828 shattered.southasiamaps.com 0 No Rank 2011-09-30 14:41:00
2928829 mappingourworld.org 3 7247163 2011-09-30 14:41:01
2928830 blackhistory101.info 0 1080057 2011-09-30 14:41:04
2928831 maplevillageassoc.com 1 No Rank 2011-09-30 14:41:07
2928832 mappyjack.com 0 23976972 2011-09-30 14:41:08
2928833 marcalicia.free.fr 0 208 2011-09-30 14:41:17
2928834 marcasite.it 4 2865958 2011-09-30 14:41:22
2928835 marchedevufflens.ch 2 No Rank 2011-09-30 14:41:28
2928836 mare.mandre.com.hr 1 No Rank 2011-09-30 14:41:34
2928837 marecho.com 1 24539516 2011-09-30 14:41:39
2928838 mari-f.com 1 No Rank 2011-09-30 14:41:45
2928839 mariaelenamusic.com 0 17903671 2011-09-30 14:41:50
2928840 flittchennutten.privatsextreffen.com 0 26876976 2011-09-30 14:41:52
2928841 mariahsrelish.net 1 10886819 2011-09-30 14:41:54
2928842 marialouisadolls.com 0 No Rank 2011-09-30 14:41:58
2928843 id2.vemmamangosteen.vemma.com 0 28280 2011-09-30 14:42:00
2928844 piata-auto.com 2 No Rank 2011-09-30 14:42:02
2928845 marielloyd.com 0 No Rank 2011-09-30 14:42:03
2928846 blackamericanstoday.com 0 No Rank 2011-09-30 14:42:09
2928847 marievincent.org 4 8197632 2011-09-30 14:42:13
2928848 unifiedconstructs.com 1 6014482 2011-09-30 14:42:15
2928849 marinacenter.ru 3 4360367 2011-09-30 14:42:18
2928850 deltagaming.forumotion.net 0 7338 2011-09-30 14:42:18
2928851 inseratenutten.privatsextreffen.com 0 26876976 2011-09-30 14:42:20
2928852 marincountyhardwoodfloors.com 0 19990058 2011-09-30 14:42:22
2928853 marisareisel.com 2 12240626 2011-09-30 14:42:27
2928854 versautenutten.privatsextreffen.com 0 26876976 2011-09-30 14:42:29
2928855 marjonspecialtyfoods.com 2 No Rank 2011-09-30 14:42:31
2928856 marketing-methodology.com 0 16333793 2011-09-30 14:42:34
2928857 marketingforeducators.com 0 No Rank 2011-09-30 14:42:38
2928858 blog.phaisarn15989.paid-surveys-review.org 0 1027478 2011-09-30 14:42:45
2928859 marksain.com 0 21629691 2011-09-30 14:42:48
2928860 solar-energy-talk.com 0 13195641 2011-09-30 14:42:48
2928861 muschirealsex.privatsextreffen.com 0 26876976 2011-09-30 14:42:48
2928862 homealertsystem.com 0 No Rank 2011-09-30 14:42:53
2928863 deutscherrealsex.privatsextreffen.com 0 26876976 2011-09-30 14:43:03
2928864 music.buikpijn33.jigsy.com 0 10794 2011-09-30 14:43:07
2928865 yumme.se 0 2963846 2011-09-30 14:43:13
2928866 marktaylor.info 0 No Rank 2011-09-30 14:43:21
2928867 hoatuoimoingay.net 0 18133640 2011-09-30 14:43:22
2928868 pbyes.com 0 5082159 2011-09-30 14:43:24
2928869 marktplaatsntk.write2me.nl 1 268404 2011-09-30 14:43:26
2928870 marrakech-hostel.com 2 13868277 2011-09-30 14:43:30
2928871 qqyyz.com 0 5772247 2011-09-30 14:43:34
2928872 marriottpleasanton.com 4 19048549 2011-09-30 14:43:35
2928873 mupdf.com 4 1083970 2011-09-30 14:43:36
2928874 xsdh.com 1 16613351 2011-09-30 14:43:39
2928875 ilema.com 0 No Rank 2011-09-30 14:43:40
2928876 martichps.com 1 No Rank 2011-09-30 14:43:40
2928877 hargis.biz 4 10750749 2011-09-30 14:43:42
2928878 martinalarm.sk 3 No Rank 2011-09-30 14:43:44
2928879 martinaweber.net 3 24415955 2011-09-30 14:43:48
2928880 martinpetrov.com 0 No Rank 2011-09-30 14:43:52
2928881 qqzone.org 0 2301560 2011-09-30 14:44:00
2928882 tongk.com 3 1076145 2011-09-30 14:44:04
2928883 nicholaswilc102.insanejournal.com 0 5015 2011-09-30 14:44:06
2928884 cauprs.org 0 No Rank 2011-09-30 14:44:07
2928885 alangreene.celeb-jewels.com 0 14875732 2011-09-30 14:44:07
2928886 maryamtoson.com 4 11157189 2011-09-30 14:44:08
2928887 externs.net 4 No Rank 2011-09-30 14:44:10
2928888 marylandcaraccidentlawyerblog.com 1 7049814 2011-09-30 14:44:15
2928889 maryvernon.com 3 No Rank 2011-09-30 14:44:19
2928890 expomenu.ru 5 2358912 2011-09-30 14:44:23
2928891 masaraat.net 2 4808528 2011-09-30 14:44:23
2928892 trafficdelivers.com 2 26484 2011-09-30 14:44:27
2928893 mascagniblog.com 2 No Rank 2011-09-30 14:44:27
2928894 happymess.se 2 5228501 2011-09-30 14:44:30
2928895 mascomabank.net 0 No Rank 2011-09-30 14:44:31
2928896 masdesoliviersprovence.com 2 No Rank 2011-09-30 14:44:35
2928897 taoistic.com 4 8768347 2011-09-30 14:44:36
2928898 ghostpdf.com 2 No Rank 2011-09-30 14:44:39
2928899 nicholaswilc1024.bravejournal.com 0 13382 2011-09-30 14:44:40
2928900 mashandling.ru 3 3279418 2011-09-30 14:44:41
2928901 acu-rite.com 3 4747200 2011-09-30 14:44:41
2928902 goshenmarket.org 3 No Rank 2011-09-30 14:44:42
2928903 mashclassof87.com 1 No Rank 2011-09-30 14:44:44
2928904 grenzart.org 3 28466318 2011-09-30 14:44:46
2928905 maskvenezia.com 1 18780200 2011-09-30 14:44:53
2928906 masonbusinesspark.com 0 No Rank 2011-09-30 14:44:58
2928907 heidenhain.us 3 16579875 2011-09-30 14:44:59
2928908 metronics.com 3 15806919 2011-09-30 14:45:02
2928909 masoniclodgeresearch.org 1 No Rank 2011-09-30 14:45:05
2928910 eugenikz.info 0 No Rank 2011-09-30 14:45:06
2928911 masonicmemorabilia.com 2 No Rank 2011-09-30 14:45:09
2928912 wiseneedle.net 4 No Rank 2011-09-30 14:45:14
2928913 massageconcepts.org 0 No Rank 2011-09-30 14:45:16
2928914 book.tongk.com 3 1076145 2011-09-30 14:45:20
2928915 massageinlouisville.com 0 20133338 2011-09-30 14:45:22
2928916 myiphone5unlocked.com 0 No Rank 2011-09-30 14:45:23
2928917 massageliege.de 2 1185714 2011-09-30 14:45:29
2928918 massagemosaik.com 2 No Rank 2011-09-30 14:45:32
2928919 orcabrowser.com 5 913753 2011-09-30 14:45:33
2928920 massinjurylawyerblog.com 3 9090133 2011-09-30 14:45:38
2928921 fiskenyheter.se 3 128405 2011-09-30 14:45:40
2928922 masspay.net 4 3765838 2011-09-30 14:45:42
2928923 tecsolutionsllc.com 1 No Rank 2011-09-30 14:45:43
2928924 usatalkback.com 4 5229891 2011-09-30 14:45:47
2928925 discussname.com 5 18665889 2011-09-30 14:45:48
2928926 master-na-dom24.ru 1 No Rank 2011-09-30 14:45:50
2928927 adclassifieds.tk 0 16844011 2011-09-30 14:45:52
2928928 mastera.qc.ca 4 17080056 2011-09-30 14:45:52
2928929 ww.coroflot.com 0 7189 2011-09-30 14:45:55
2928930 masterflooringinspectors.com 0 No Rank 2011-09-30 14:45:56
2928931 kakmonstretuf.se 0 No Rank 2011-09-30 14:45:59
2928932 www2.asiajam.com 0 226913 2011-09-30 14:46:07
2928933 gujaratfiles.net 0 10166002 2011-09-30 14:46:09
2928934 mastersleightofmouthonline.com 0 No Rank 2011-09-30 14:46:10
2928935 silverneedle.com 0 No Rank 2011-09-30 14:46:11
2928936 mastertrader.biz 2 22758162 2011-09-30 14:46:19
2928937 matamore.net 4 9912523 2011-09-30 14:46:23
2928938 matematika.projektas.lt 0 374018 2011-09-30 14:46:24
2928939 mathieuberthemy.com 1 4278077 2011-09-30 14:46:28
2928940 user.dudushu.com 3 No Rank 2011-09-30 14:46:28
2928941 mathshealing.com 0 No Rank 2011-09-30 14:46:31
2928942 maticnamlijec.com 2 No Rank 2011-09-30 14:46:33
2928943 discussnames.net 5 No Rank 2011-09-30 14:46:35
2928944 maticnasluzba.leskovac.tel 1 5326243 2011-09-30 14:46:37
2928945 learningladder.in 0 No Rank 2011-09-30 14:46:38
2928946 matsushita-mokuzai.com 1 No Rank 2011-09-30 14:46:43
2928947 mattchazin.com 0 No Rank 2011-09-30 14:46:47
2928948 mattinglyfuneralhome.com 2 No Rank 2011-09-30 14:46:57
2928949 forum.asiajam.com 2 226913 2011-09-30 14:47:02
2928950 mattmcgtraining.com 1 7302098 2011-09-30 14:47:03
2928951 arkadaslik.com.tr 3 1804250 2011-09-30 14:47:08
2928952 ace.emailaces.com 0 59953 2011-09-30 14:47:09
2928953 mattniemanagency.com 0 No Rank 2011-09-30 14:47:12
2928954 bestwinserver.com 3 18774133 2011-09-30 14:47:15
2928955 mattraineyimages.com 2 11349320 2011-09-30 14:47:15
2928956 mattstax.com 0 20840599 2011-09-30 14:47:20
2928957 cn.orcabrowser.com 5 913753 2011-09-30 14:47:23
2928958 clickbank-market.blogspot.com 0 No Rank 2011-09-30 14:47:24
2928959 matoacaindians.com 1 No Rank 2011-09-30 14:47:24
2928960 mauibeachtan.com 0 20757127 2011-09-30 14:47:24
2928961 idmag.coroflot.com 0 7189 2011-09-30 14:47:26
2928962 mavrovic.com 2 19639370 2011-09-30 14:47:28
2928963 svn.ghostscript.com 6 145797 2011-09-30 14:47:33
2928964 git.ghostscript.com 6 145797 2011-09-30 14:47:36
2928965 maxi-m.ru 4 1609637 2011-09-30 14:47:37
2928966 maxpol.com.pl 3 14730134 2011-09-30 14:47:38
2928967 cn.avantbrowser.com 0 122810 2011-09-30 14:47:39
2928968 maxverein.de 5 1574774 2011-09-30 14:47:45
2928969 maydaymullagh.org 2 No Rank 2011-09-30 14:47:47
2928970 mayihelpyou.us 0 No Rank 2011-09-30 14:47:48
2928971 mayneinvestigations.com 2 17689935 2011-09-30 14:47:53
2928972 mbauto.pl 0 No Rank 2011-09-30 14:48:02
2928973 mbcnikolaev.com.ua 1 2921700 2011-09-30 14:48:03
2928974 chs.avantbrowser.com 6 122617 2011-09-30 14:48:08
2928975 mcallenacupuncture.com 1 12390893 2011-09-30 14:48:11
2928976 bugs.ghostscript.com 6 145797 2011-09-30 14:48:17
2928977 mcarrcontracting.com 0 No Rank 2011-09-30 14:48:18
2928978 mcbridalexpo.com 0 19226487 2011-09-30 14:48:19
2928979 loweverydayprices.com 0 13205166 2011-09-30 14:48:20
2928980 mcbriderealtyservices.com 2 No Rank 2011-09-30 14:48:24
2928981 asylgruppenimalmo.org 1 No Rank 2011-09-30 14:48:26
2928982 mccloskeyrealty.com 0 No Rank 2011-09-30 14:48:26
2928983 mccluskeyphotography.net 1 No Rank 2011-09-30 14:48:28
2928984 press.sallybeauty.com 2 17252 2011-09-30 14:48:29
2928985 mcculloughcomm.com 1 No Rank 2011-09-30 14:48:33
2928986 mcdonaldacademy.com 4 7421396 2011-09-30 14:48:39
2928987 mccurdybowl.com 3 16497108 2011-09-30 14:48:39
2928988 votepadilla.com 1 No Rank 2011-09-30 14:48:42
2928989 mcenergygroup.nl 2 No Rank 2011-09-30 14:48:50
2928990 82101688.com 1 2232052 2011-09-30 14:48:53
2928991 kartlifters.com 2 22813720 2011-09-30 14:48:54
2928992 ful2fun.com 0 1302293 2011-09-30 14:48:55
2928993 mcenergygroup.ie 2 16857739 2011-09-30 14:48:55
2928994 mcgrathdistributing.com 1 No Rank 2011-09-30 14:48:55
2928995 mchenrycitizenstaxwatch.org 1 No Rank 2011-09-30 14:48:59
2928996 mckaybusinesssystems.com 0 11624665 2011-09-30 14:48:59
2928997 mckinneyfund.com 0 No Rank 2011-09-30 14:49:05
2928998 seloger-maroc.ma 0 26787998 2011-09-30 14:49:06
2928999 mdll.org 3 No Rank 2011-09-30 14:49:10